DL7GAI-7 Weather Reports


time (UTC)temp
F
wind
direction
speed
knots
gust
knots
rain 1hr
in
rain 24hr
in
rain mn
in
humidity
%
barometer
mb
20260905213350 60 45 1.7 3.5 0.00 0.06 0.06 94 1025.6
20260905211951 60 45 1.7 3.5 0.00 0.06 0.06 94 1025.6
20260905210631 60 45 1.7 3.5 0.00 0.06 0.06 94 1025.6
20260905205329 61 0 0.9 3.5 0.00 0.06 0.06 91 1025.2
20260905203926 61 0 0.9 3.5 0.00 0.06 0.06 91 1025.2
20260905202510 62 45 1.7 3.5 0.00 0.06 0.06 90 1025.0
20260905201216 62 45 1.7 3.5 0.00 0.06 0.06 90 1025.0
20260905195844 62 45 1.7 5.2 0.00 0.06 0.06 88 1024.7
20260905194551 62 45 1.7 5.2 0.00 0.06 0.06 88 1024.7
20260905193215 63 45 1.7 3.5 0.00 0.06 0.06 84 1024.2
20260905191956 63 45 1.7 3.5 0.00 0.06 0.06 84 1024.2
20260905190611 63 45 1.7 3.5 0.00 0.06 0.06 84 1024.2
20260905185241 67 225 1.7 7.0 0.00 0.06 0.06 75 1023.5
20260905183906 67 225 1.7 7.0 0.00 0.06 0.06 75 1023.5
20260905182621 69 225 1.7 7.0 0.00 0.06 0.06 69 1023.1
20260905181231 69 225 1.7 7.0 0.00 0.06 0.06 69 1023.1
20260905175816 70 270 4.3 13.9 0.00 0.06 0.06 66 1023.0
20260905174416 70 270 4.3 13.9 0.00 0.06 0.06 66 1023.0
20260905172447 71 270 7.0 13.9 0.00 0.06 0.06 65 1022.8
20260905171127 71 270 7.0 13.9 0.00 0.06 0.06 65 1022.8
20260905165837 70 225 6.1 11.3 0.00 0.06 0.06 69 1022.7
20260905164412 70 225 6.1 11.3 0.00 0.06 0.06 69 1022.7
20260905163145 69 270 4.3 11.3 0.00 0.06 0.06 68 1022.9
20260905161857 69 270 4.3 11.3 0.00 0.06 0.06 68 1022.9
20260905160537 68 270 3.5 15.6 0.00 0.06 0.06 71 1023.3
20260905155102 68 270 3.5 15.6 0.00 0.06 0.06 71 1023.3
20260905153752 68 270 3.5 15.6 0.00 0.06 0.06 71 1023.3
20260905152342 66 225 5.2 15.6 0.00 0.06 0.06 80 1023.5
20260905151017 66 225 5.2 15.6 0.00 0.06 0.06 80 1023.5
20260905145632 66 270 10.4 18.2 0.00 0.06 0.06 74 1023.8
20260905144302 66 270 10.4 18.2 0.00 0.06 0.06 74 1023.8
20260905142952 69 270 6.1 16.5 0.00 0.05 0.05 67 1023.1
20260905141722 69 270 6.1 16.5 0.00 0.05 0.05 67 1023.1
20260905140359 70 270 5.2 9.6 0.00 0.05 0.05 74 1022.7
20260905135037 70 270 5.2 9.6 0.00 0.05 0.05 74 1022.7
20260905133817 70 270 5.2 9.6 0.00 0.05 0.05 74 1022.7
20260905132547 71 225 4.3 7.0 0.00 0.05 0.05 71 1022.4
20260905131307 71 225 4.3 7.0 0.00 0.05 0.05 71 1022.4
20260905130012 70 225 1.7 4.3 0.00 0.05 0.05 69 1022.7
20260905124702 70 225 1.7 4.3 0.00 0.05 0.05 69 1022.7
20260905123447 69 180 1.7 4.3 0.00 0.05 0.05 74 1022.8
20260905122157 69 180 1.7 4.3 0.00 0.05 0.05 74 1022.8
20260905120832 69 180 1.7 4.3 0.00 0.05 0.05 74 1022.8
20260905115522 68 90 1.7 6.1 0.00 0.05 0.05 74 1022.8
20260905114107 68 90 1.7 6.1 0.00 0.05 0.05 74 1022.8
20260905112757 67 45 1.7 6.1 0.00 0.05 0.05 74 1023.0
20260905111427 67 45 1.7 6.1 0.00 0.05 0.05 74 1023.0
20260905105948 67 0 4.3 7.8 0.00 0.05 0.05 69 1022.7
20260905104627 67 0 4.3 7.8 0.00 0.05 0.05 69 1022.7
20260905103337 69 0 4.3 6.1 0.00 0.05 0.05 76 1022.4
20260905101912 69 0 4.3 6.1 0.00 0.05 0.05 76 1022.4
20260905100612 69 0 4.3 6.1 0.00 0.05 0.05 76 1022.4
20260905095222 69 0 3.5 7.0 0.00 0.05 0.05 79 1022.3
20260905093927 69 0 3.5 7.0 0.00 0.05 0.05 79 1022.3
20260905092552 67 315 5.2 7.0 0.00 0.05 0.05 80 1022.0
20260905091222 67 315 5.2 7.0 0.00 0.05 0.05 80 1022.0
20260905085747 66 270 1.7 7.8 0.00 0.05 0.05 83 1021.6
20260905084502 66 270 1.7 7.8 0.00 0.05 0.05 83 1021.6
20260905083132 65 315 4.3 7.8 0.00 0.04 0.04 89 1021.4
20260905081734 65 315 4.3 7.8 0.00 0.04 0.04 89 1021.4
20260905080327 66 270 3.5 7.0 0.02 0.04 0.04 86 1021.3
20260905075017 66 270 3.5 7.0 0.02 0.04 0.04 86 1021.3
20260905073658 66 270 3.5 7.0 0.02 0.04 0.04 86 1021.3
20260905072214 65 315 1.7 5.2 0.01 0.02 0.02 91 1020.9
20260905070854 65 315 1.7 5.2 0.01 0.02 0.02 91 1020.9
20260905065604 65 315 4.3 7.0 0.01 0.01 0.01 86 1020.8
20260905064247 65 315 4.3 7.0 0.01 0.01 0.01 86 1020.8
20260905062957 66 0 0.0 5.2 0.00 0.00 0.00 79 1020.3
20260905061747 66 0 0.0 5.2 0.00 0.00 0.00 79 1020.3
20260905060412 66 0 4.3 6.1 0.00 0.00 0.00 78 1020.1
20260905055117 66 0 4.3 6.1 0.00 0.00 0.00 78 1020.1
20260905053817 66 0 4.3 6.1 0.00 0.00 0.00 78 1020.1
20260905052522 67 315 5.2 6.1 0.00 0.00 0.00 75 1019.7
20260905051217 67 315 5.2 6.1 0.00 0.00 0.00 75 1019.7
20260905045907 65 315 5.2 6.1 0.00 0.00 0.00 80 1019.6
20260905044542 65 315 5.2 6.1 0.00 0.00 0.00 80 1019.6
20260905043257 67 270 2.6 5.2 0.00 0.00 0.00 76 1019.0
20260905042018 67 270 2.6 5.2 0.00 0.00 0.00 76 1019.0
20260905040632 67 270 2.6 5.2 0.00 0.00 0.00 76 1019.0
20260905035257 69 315 4.3 7.8 0.00 0.00 0.00 70 1018.4
20260905033957 69 315 4.3 7.8 0.00 0.00 0.00 70 1018.4
20260905032637 71 315 6.1 7.8 0.00 0.00 0.00 62 1017.6
20260905031242 71 315 6.1 7.8 0.00 0.00 0.00 62 1017.6
20260905030022 69 315 6.1 9.6 0.00 0.00 0.00 67 1017.5
20260905024647 69 315 6.1 9.6 0.00 0.00 0.00 67 1017.5
20260905023307 70 315 5.2 9.6 0.00 0.00 0.00 65 1017.2
20260905021922 70 315 5.2 9.6 0.00 0.00 0.00 65 1017.2
20260905020632 70 315 5.2 9.6 0.00 0.00 0.00 65 1017.2
20260905015327 72 315 5.2 7.8 0.00 0.00 0.00 59 1016.9
20260905014002 72 315 5.2 7.8 0.00 0.00 0.00 59 1016.9
20260905012722 70 315 5.2 7.8 0.00 0.00 0.00 65 1017.1
20260905011402 70 315 5.2 7.8 0.00 0.00 0.00 65 1017.1
20260905010037 68 315 5.2 6.1 0.00 0.00 0.00 72 1017.1
20260905004647 68 315 5.2 6.1 0.00 0.00 0.00 72 1017.1
20260905003257 67 0 3.5 5.2 0.00 0.00 0.00 75 1017.0
20260905001952 67 0 3.5 5.2 0.00 0.00 0.00 75 1017.0
20260905000507 67 0 1.7 4.3 0.00 0.00 0.00 74 1017.0
20260904235123 67 0 1.7 4.3 0.00 0.00 0.00 74 1017.0
20260904233806 67 0 1.7 4.3 0.00 0.00 0.00 74 1017.0
20260904232356 68 0 1.7 3.5 0.00 0.00 0.00 71 1016.7
20260904230937 68 0 1.7 3.5 0.00 0.00 0.00 71 1016.7
20260904225552 69 45 1.7 8.7 0.00 0.00 0.00 67 1016.7
20260904224143 69 45 1.7 8.7 0.00 0.00 0.00 67 1016.7
20260904222912 74 315 3.5 8.7 0.00 0.00 0.00 56 1016.0
20260904221632 74 315 3.5 8.7 0.00 0.00 0.00 56 1016.0
20260904220347 76 315 5.2 9.6 0.00 0.00 0.00 53 1015.8
20260904215112 76 315 5.2 9.6 0.00 0.00 0.00 53 1015.8